User: anonymous   Login
Location: Fort Wayne
(41.1310°N, 85.1290°W)
Time: 11:23:25
(UTC-05:00)
Language:

ISS - Orbit

View from above orbital plane
View from above orbital plane
View from above satellite
View from above satellite

Ground track
Ground track

The orbit data is extracted from the following two-line orbital elements,

1 25544U 98067A   14356.27736406  .00021854  00000-0  35537-3 0  6087
2 25544 051.6482 246.7851 0007723 160.8999 297.5709 15.52584657920516
Epoch (UTC): 22 December 2014 06:39:24
Eccentricity: 0.0007723
inclination: 51.6482°
perigee height: 404 km
apogee height: 414 km
right ascension of ascending node: 246.7851°
argument of perigee: 160.8999°
revolutions per day: 15.52584657
mean anomaly at epoch: 297.5709°
orbit number at epoch: 92051

The dashed part of the orbit path shows where the satellite is in the earth's shadow,  

DLR